Regional Weather Roundup
Issued by NWS

Home | Current Version | Previous Version | Text Only | Print | Product List | Glossary On
Versions: 1 2 3 4 5 6 7 8 9 10 11 12 13 14 15 16 17 18 19 20 21 22 23 24 25 26 27 28 29 30 31 32 33 34 35 36 37 38 39 40 41 42 43 44 45 46 47 48 49 50
000
ASUS44 KFWD 282310
RWRTX
NORTH TEXAS HOURLY WEATHER ROUNDUP
NATIONAL WEATHER SERVICE FORT WORTH TX
600 PM CDT THU JUL 28 2016

NOTE: "FAIR" INDICATES FEW OR NO CLOUDS BELOW 12,000 FEET WITH NO
SIGNIFICANT WEATHER AND/OR OBSTRUCTIONS TO VISIBILITY.

TXZ118-119-290000-
DALLAS/FORT WORTH METROPLEX

CITY           SKY/WX    TMP DP  RH WIND       PRES   REMARKS
DFW AIRPORT    PTSUNNY   91  69  48 S12       29.88F HX  96
DALLAS LOVE    PTSUNNY   93  68  43 S12       29.89S HX  97
FTW MEACHAM    TSTM      83  72  69 E14       29.89R
DAL-EXECUTIVE  LGT RAIN  80  74  81 NW3       29.90F
FTW-ALLIANCE   CLOUDY    85  72  65 S7        29.90S HX  91
FTW-NAS-JRB    PTSUNNY   92  67  43 E12G20    29.89S THUNDER HX  95
FTW-SPINKS     MOSUNNY   97  66  36 SE3       29.91S HX 100
ARLINGTON      TSTM      91  71  51 NE18G26   29.88F HX  97
ADDISON        MOSUNNY   95  68  41 S7G17     29.90F HX  99
MESQUITE       MOSUNNY   86  70  58 SE14G21   29.91S HX  90
LANCASTER      PTSUNNY   95  67  39 E10       29.91R HX  99
$$

TXZ091>094-102>105-117-120-121-131>134-290000-
NORTH CENTRAL TEXAS

CITY           SKY/WX    TMP DP  RH WIND       PRES   REMARKS
SHRMAN/DENISON MOSUNNY   94  72  47 SE7       29.91S HX 102
GAINESVILLE    SUNNY     92  71  49 SE5       29.92R HX  98
BOWIE          MOSUNNY   96  68  40 SE3       29.90S HX 101
BRIDGEPORT     PTSUNNY   87  72  60 SW5       29.92S HX  93
DECATUR        MOSUNNY   91  66  43 SE6       29.92R HX  94
DENTON         MOSUNNY   95  70  44 SE10      29.89F HX 101
MCKINNEY       SUNNY     94  72  48 SE8       29.89F HX 102
GREENVILLE     CLOUDY    90  68  48 SE15      29.91S HX  93
ROCKWALL       CLOUDY    88  73  60 SE14G30   29.89S HX  96
TERRELL        PTSUNNY   88  69  53 S17G29    29.92F HX  92
WAXAHACHIE     MOSUNNY   95  68  40 S8        29.91S HX  99
CLEBURNE       SUNNY     95  66  38 S9        29.91F HX  98
GRANBURY       CLOUDY    98  63  31 S10       29.90S HX 100
$$

TXZ083>090-098>101-113>116-127>130-139>142-154-155-290000-
WESTERN NORTH TEXAS

CITY           SKY/WX    TMP DP  RH WIND       PRES   REMARKS
WICHITA FALLS  MOSUNNY   97  67  37 SE9       29.88F HX 101
WF-KICKAPOO    SUNNY     99  64  31 E7        29.90S HX 101
VERNON         SUNNY     99  54  22 E7        29.89F HX  97
ABILENE        MOSUNNY   95  63  34 SE14      29.93F THUNDER HX  96
CISCO          SUNNY     93  68  43 S12G20    29.96F HX  97
BRECKENRIDGE   CLOUDY    78  71  77 SE6       29.93F
GRAHAM         CLOUDY    89  69  51 S7        29.89F HX  93
MINERAL WELLS  TSTM      78  72  81 NW15G31   29.92R VSB 3/4
STEPHENVILLE   MOSUNNY   94  64  36 S6        29.96S HX  95
COMANCHE       SUNNY     92  65  39 S7        29.95S HX  94
BROWNWOOD      LGT RAIN  93  64  38 SE10      29.94S HX  95
COLEMAN        SUNNY     96  58  28 S7        29.95F HX  95
$$

TXZ143>147-156>162-174-175-290000-
CENTRAL TEXAS

CITY           SKY/WX    TMP DP  RH WIND       PRES   REMARKS
WACO           CLOUDY    85  67  54 S21G29    29.92S
WACO-MCGREGOR  PTSUNNY   82  73  74 S12       29.93F
HILLSBORO      PTSUNNY   91  68  46 E7G16     29.91S HX  94
CORSICANA      CLOUDY    85  72  65 S18G29    29.95R HX  91
MEXIA          CLOUDY    81  72  72 S10       29.94R
HEARNE         CLOUDY    87  70  55 S12       29.94F HX  92
CAMERON        MOSUNNY   88  68  51 SW14      29.92F HX  91
TEMPLE         CLOUDY    88  71  57 S16       29.93S HX  94
KILLEEN        PTSUNNY   98  61  29 S10G16    29.93  HX  98
KILLEEN-SKYLRK CLOUDY    88  70  55 S20G26    29.93S HX  93
GATESVILLE     MOSUNNY   91  68  46 SE13G20   29.94F HX  95
HAMILTON       SUNNY     95  63  34 SE9       29.95S HX  96
LAMPASAS       MOSUNNY   91  72  54 SE17G26   29.93S HX  98
$$

TXZ095>097-106>112-122>126-135>138-148>153-164>167-290000-
EAST TEXAS

CITY           SKY/WX    TMP DP  RH WIND       PRES   REMARKS
PARIS          MOSUNNY   90  68  48 SE10      29.92S HX  93
SULPHUR SPRNGS CLOUDY    87  71  57 S14       29.95R HX  93
MOUNT PLEASANT CLOUDY    80  71  74 S7        29.96S
GILMER         LGT RAIN  77  74  90 S5        29.96S
MINEOLA        CLOUDY    84  75  74 E7        29.95F HX  92
TYLER          CLOUDY    82  74  76 SE16      29.97R
LONGVIEW       CLOUDY    76  75  97 S9        29.96S
MARSHALL       CLOUDY    70  68  93 S5        30.00R
ATHENS         CLOUDY    86  70  58 SE8       29.94R HX  90
PALESTINE      PTSUNNY   86  74  68 SE7       29.98R HX  93
JACKSONVILLE   CLOUDY    76  70  82 SE5       30.03S
HENDERSON      CLOUDY    74  73  94 S10       30.01R
CENTER         LGT RAIN  75  73  96 S7        30.03F
NACOGDOCHES    CLOUDY   N/A N/A N/A SE9       30.00F
LUFKIN         LGT RAIN  75  73  93 NE10      30.00R
$$

SUPPLEMENTAL OBSERVATIONS (CENTRAL)

CITY           SKY/WX    TMP DP  RH WIND       PRES   REMARKS
CADDO GRASSLND   N/A     88  72  58 S6          N/A  HX  94
PAT MAYSE LAKE   N/A     90  75  62 SE12        N/A  HX 100
GREENVILLE       N/A     90  70  51 S9          N/A  HX  95
CEDAR HILL       N/A     93  73  52 CALM        N/A  HX 102
MCGREGOR         N/A     84  75  74 SE10G21     N/A  HX  92
TEMPLE           N/A     90  68  48 S17G26      N/A  HX  93
$$

SUPPLEMENTAL OBSERVATIONS (WEST)

CITY           SKY/WX    TMP DP  RH WIND       PRES   REMARKS
MILLERS CREEK    N/A     97  66  36 SE10        N/A  HX 100
POSSUM KINGDOM   N/A     82  64  54 SW8G21      N/A
LBJ GRASSLAND    N/A     91  73  55 SE5         N/A  HX 100
GRANBURY         N/A     99  64  32 S13         N/A  HX 101
HAMBY            N/A     84  68  58 NW9G20      N/A
IVIE RESERVOIR   N/A     97  61  30 E12         N/A  HX  97
COLORADO BEND    N/A     97  57  26 SW6G15      N/A  HX  95
$$

SUPPLEMENTAL OBSERVATIONS (EAST)

CITY           SKY/WX    TMP DP  RH WIND       PRES   REMARKS
TEXARKANA        N/A     75  73  94 S1          N/A
LINDEN           N/A     77  72  83 SW5         N/A
HENDERSON        N/A     75  72  88 S8          N/A
LUFKIN           N/A     77  75  94 MISG        N/A
N SABINE NF      N/A     73  70  88 MISG        N/A
$$

SUPPLEMENTAL OBSERVATIONS ARE A COLLECTION OF AUTOMATED INSTRUMENTS
THAT ARE MAINTAINED BY A VARIETY OF FEDERAL AND STATE AGENCIES.
CERTAIN ELEMENTS...SUCH AS HUMIDITY VALUES AND SUSTAINED WIND
SPEEDS...MAY BE APPROXIMATED.




USA.gov is the U.S. government's official web portal to all federal, state and local government web resources and services.